Flag for Pakistan Weather past 2 weeks in Rawalpindi, Pakistan

86 °F


Feels Like: 87 °F
Forecast: 65 / 92 °F
Wind: 12 mph from Southeast

Location: Islamabad Airport

Current Time: Oct 7, 2015 at 1:41:05 PM

Latest Report: Oct 7, 2015 at 11:00 AM

Visibility: 4 mi

Pressure: 29.98 "Hg (28.33 "Hg at 501m altitude)

Humidity: 49%

Dew point: 64 °F

Location of RawalpindiLocation

Historic Weather in Rawalpindi — Graph


Rawalpindi temperature yesterday

Maximum temperature yesterday: 91 °F (at 2:00 PM)
Minimum temperature yesterday: 70 °F (at 5:00 AM)
Average temperature yesterday: 81 °F

Past Weeks' High & Low Weather Summary

High93 °F (Oct 2, 3:00 PM)100% (Sep 23, 8:00 AM)30.09 "Hg (Sep 23, 8:00 AM)
Low63 °F (Sep 30, 6:00 AM)27% (Sep 24, 4:00 PM)29.59 "Hg (Sep 22, 6:00 PM)
Average77 °F63%29.89 "Hg
* Reported Sep 22 11:00 AM — Oct 7 11:00 AM, Rawalpindi, Weather by CustomWeather, © 2015

Note: Actual official high and low records may vary slightly from our data, if they occured in-between our weather recording intervals... More about our weather records


Rawalpindi weather history for previous 24 hours

Time TempWeatherWind HumidityBarometerVisibility
11:00 AM
Wed, Oct 7
86 °FClear.12 mph49%29.98 "Hg4 mi
10:00 AM84 °FPassing clouds.5 mph51%29.98 "Hg4 mi
9:00 AM79 °FPassing clouds.5 mph58%29.95 "Hg4 mi
8:00 AM73 °FPassing clouds.5 mph69%29.95 "Hg4 mi
7:00 AM72 °FScattered clouds.5 mph73%29.92 "Hg4 mi
5:00 AM73 °FPassing clouds.7 mph69%29.89 "Hg2 mi
4:00 AM75 °FPassing clouds.12 mph61%29.89 "Hg2 mi
3:00 AM77 °FThundershowers. Passing clouds.16 mph57%29.89 "Hg2 mi
2:00 AM79 °FThundershowers. Partly cloudy.16 mph61%29.89 "Hg2 mi
1:00 AM79 °FThundershowers. Partly cloudy.23 mph61%29.89 "Hg2 mi
12:00 AM79 °FThundershowers. Partly cloudy.30 mph61%29.89 "Hg2 mi
11:00 PM
Tue, Oct 6
79 °FThundershowers. Passing clouds.21 mph61%29.98 "Hg2 mi
10:00 PM81 °FThunderstorms. Passing clouds.28 mph58%29.98 "Hg2 mi
9:00 PM82 °FThundershowers. Passing clouds.23 mph66%29.92 "Hg2 mi
8:00 PM84 °FThundershowers. Passing clouds.14 mph55%29.92 "Hg2 mi
6:00 PM88 °FPassing clouds.12 mph49%29.86 "Hg3 mi
5:00 PM90 °FScattered clouds.7 mph46%29.86 "Hg4 mi
4:00 PM91 °FPassing clouds.7 mph44%29.86 "Hg4 mi
2:00 PM91 °FPassing clouds.5 mph44%29.89 "Hg4 mi
1:00 PM90 °FClear.5 mph46%29.95 "Hg4 mi
Weather by CustomWeather, © 2015

See weather overviewHow to use our weather pages